ND5T Weather Reports


Display with metric or nautical units.
time (UTC)temp
F
wind
direction
speed
MPH
gust
MPH
rain 1hr
in
rain 24hr
in
rain mn
in
humidity
%
barometer
mb
20260505121505 72 180 0.0 2.0 0.00 0.00 0.00 91 1008.9
20260505120126 71 325 0.0 1.0 0.00 0.00 0.00 91 1008.7
20260505114541 71 59 0.0 2.0 0.00 0.00 0.00 91 1008.9
20260505113039 71 133 0.0 2.0 0.00 0.00 0.00 91 1008.8
20260505111513 70 65 0.0 0.0 0.00 0.00 0.00 92 1008.7
20260505101600 69 65 0.0 0.0 0.00 0.00 0.00 92 1008.8
20260505100108 69 65 0.0 0.0 0.00 0.00 0.00 92 1008.8
20260505094559 69 65 0.0 0.0 0.00 0.00 0.00 92 1008.8
20260505093027 69 65 0.0 0.0 0.00 0.00 0.00 91 1009.1
20260505091559 69 65 0.0 0.0 0.00 0.00 0.00 91 1008.9
20260505090119 69 65 0.0 0.0 0.00 0.00 0.00 91 1009.1
20260505084525 69 65 0.0 0.0 0.00 0.00 0.00 90 1009.2
20260505083031 69 65 0.0 0.0 0.00 0.00 0.00 90 1009.2
20260505081559 69 65 0.0 0.0 0.00 0.00 0.00 90 1009.4
20260505080109 69 65 0.0 0.0 0.00 0.00 0.00 89 1009.4
20260505074523 69 65 0.0 0.0 0.00 0.00 0.00 89 1009.4
20260505073040 69 65 0.0 2.0 0.00 0.00 0.00 89 1009.8
20260505071553 69 281 0.0 0.0 0.00 0.00 0.00 88 1009.9
20260505070047 69 35 0.0 0.0 0.00 0.00 0.00 88 1010.0
20260505064601 69 305 0.0 0.0 0.00 0.00 0.00 88 1010.1
20260505063007 69 305 0.0 0.0 0.00 0.00 0.00 86 1010.3
20260505061549 70 304 0.0 0.0 0.00 0.00 0.00 86 1010.4
20260505054519 70 304 0.0 2.0 0.00 0.00 0.00 84 1010.7
20260505053046 71 321 0.0 0.0 0.00 0.00 0.00 83 1010.6
20260505051554 71 351 0.0 3.0 0.00 0.00 0.00 83 1010.9
20260505050114 71 31 0.0 1.0 0.00 0.00 0.00 81 1011.0
20260505041508 72 75 0.0 1.0 0.00 0.00 0.00 80 1010.7
20260505040105 72 13 0.0 2.0 0.00 0.00 0.00 79 1011.2
20260505034526 72 133 0.0 1.0 0.00 0.00 0.00 79 1010.9
20260505033052 72 90 0.0 3.0 0.00 0.00 0.00 79 1011.3
20260505031511 73 53 0.0 2.0 0.00 0.00 0.00 78 1011.2
20260505030044 73 223 0.0 4.0 0.00 0.00 0.00 78 1011.0
20260505024554 73 64 0.0 5.0 0.00 0.00 0.00 77 1011.0
20260505023054 73 127 0.0 2.0 0.00 0.00 0.00 77 1011.1
20260505021603 73 156 0.0 2.0 0.00 0.00 0.00 77 1011.0
20260505020100 73 321 0.0 2.0 0.00 0.00 0.00 77 1011.0
20260505014513 73 69 0.0 1.0 0.00 0.00 0.00 76 1010.6
20260505013045 74 69 0.0 2.0 0.00 0.00 0.00 75 1010.6
20260505011533 74 74 0.0 2.0 0.00 0.00 0.00 73 1010.6
20260505010109 75 28 0.0 2.0 0.00 0.00 0.00 73 1010.6
20260505004542 75 325 0.0 1.0 0.00 0.00 0.00 72 1010.4
20260505003003 75 328 0.0 2.0 0.00 0.00 0.00 72 1010.4
20260505001546 76 51 0.0 4.0 0.00 0.00 0.00 71 1010.6
20260505000105 76 86 0.0 2.0 0.00 0.00 0.00 71 1010.7
20260504234524 76 159 0.0 4.0 0.00 0.00 0.00 70 1010.5
20260504233039 76 329 0.0 2.0 0.00 0.00 0.00 71 1010.7
20260504231501 77 76 0.0 4.0 0.00 0.00 0.00 70 1010.9
20260504230001 77 76 0.0 4.0 0.00 0.00 0.00 69 1011.1
20260504224545 77 106 0.0 6.0 0.00 0.00 0.00 68 1011.0
20260504223054 78 92 0.0 3.0 0.00 0.00 0.00 67 1011.2
20260504221520 79 38 0.0 2.0 0.00 0.00 0.00 66 1011.4
20260504220007 79 85 0.0 3.0 0.00 0.00 0.00 64 1011.4
20260504214559 80 65 0.0 4.0 0.00 0.00 0.00 62 1011.5
20260504213113 81 90 0.0 2.0 0.00 0.00 0.00 59 1011.6
20260504211549 82 105 0.0 2.0 0.00 0.00 0.00 57 1011.8
20260504210005 83 105 0.0 3.0 0.00 0.00 0.00 54 1012.0
20260504204530 82 82 0.0 3.0 0.00 0.00 0.00 55 1012.4
20260504203048 82 291 0.0 1.0 0.00 0.00 0.00 55 1012.7
20260504201526 82 206 0.0 4.0 0.00 0.00 0.00 54 1012.8
20260504200007 82 80 0.0 1.0 0.00 0.00 0.00 57 1012.9
20260504194555 82 116 0.0 3.0 0.00 0.00 0.00 54 1013.2
20260504193103 80 288 0.0 3.0 0.00 0.00 0.00 60 1013.5
20260504191507 81 331 0.0 1.0 0.00 0.00 0.00 57 1013.8
20260504190040 81 289 0.0 3.0 0.00 0.00 0.00 56 1014.0
20260504184547 82 275 0.0 2.0 0.00 0.00 0.00 53 1014.1
20260504183019 81 105 0.0 3.0 0.00 0.00 0.00 55 1014.2
20260504181548 80 43 0.0 2.0 0.00 0.00 0.00 53 1014.4
20260504180009 80 294 0.0 4.0 0.00 0.00 0.00 57 1014.6
20260504174528 79 88 0.0 3.0 0.00 0.00 0.00 57 1014.8
20260504173049 79 360 0.0 3.0 0.00 0.00 0.00 58 1015.0
20260504171601 78 107 0.0 2.0 0.00 0.00 0.00 58 1015.3
20260504150112 72 128 0.0 3.0 0.00 0.00 0.00 66 1016.3
20260504130104 57 171 0.0 0.0 0.00 0.00 0.00 95 1016.3